[[{"header":{"parameterUnit":"m.s-1","parameterCategory":1,"la1":30.2991,"la2":30.254,"lo1":-89.0895,"lo2":-89.0444,"dy":0.0017,"dx":0.0017,"nx":28,"ny":28,"refTime":"2023-10-07T09:00:00:Z","depth":0,"parameterNumber":2,"parameterNumberName":"U-component_of_WINDS"},"data":[0,0,0,0,0,0,0,0,0,0,0,0,0,0,0,0,0,0,0,0,0,0,0,0,0,0,0,0,0,0,0,0,0,0,0,0,0,0,0,0,0,0,0,0,0,0,0,0,0,0,0,0,0,0,0,0,0,0,0.5684,0.5683,0,0.5592,0.5591,0.559,0.5515,0.5514,0.5513,0.5512,0.5417,0.5416,0.5414,0,0,0,0,0,0,0,0,0,0,0,0,0,0.5797,0.5795,0.5684,0.5683,0.5682,0.5592,0.5591,0.559,0.5515,0.5514,0.5513,0.5512,0.5418,0.5416,0.5414,0,0,0,0,0,0,0,0,0,0,0,0,0,0.5731,0.5795,0.5685,0.5634,0.5628,0.5592,0.5591,0.5589,0.5515,0.5514,0.5513,0.5511,0.5419,0.5416,0.5413,0.542,0,0,0.5405,0.5404,0,0,0,0,0,0,0,0,0.5735,0.5727,0.5642,0.5637,0.5631,0.5564,0.5596,0.5533,0.5515,0.5558,0.5512,0.5511,0.5467,0.546,0.5445,0.5416,0.5412,0.5405,0.5403,0.5402,0.5401,0,0,0,0,0,0,0,0.5739,0.573,0.5648,0.5641,0.5634,0.5616,0.5605,0.5583,0.552,0.5554,0.5549,0.5539,0.5464,0.5448,0.5443,0.541,0.5405,0.5403,0.5401,0.54,0.5383,0.5384,0,0,0,0,0,0,0.5752,0.5735,0.5651,0.5645,0.5681,0.5615,0.5603,0.5586,0.552,0.5509,0.554,0.5535,0.5453,0.5446,0.5439,0.5443,0.5402,0.54,0.5398,0.5382,0.5383,0.5384,0,0,0,0,0,0,0.5754,0.5745,0.5654,0.5688,0.5675,0.5614,0.5596,0.5585,0.557,0.5509,0.5498,0.5536,0.5452,0.5443,0.5426,0.5439,0.5398,0.5396,0.538,0.5382,0.5384,0.5451,0,0,0,0,0,0,0.5758,0.5746,0.5748,0.5689,0.5674,0.5643,0.5597,0.5584,0.5565,0.5559,0.5502,0.5492,0.5451,0.543,0.5423,0.5434,0.5394,0.5379,0.5381,0.5383,0.5448,0.5455,0.5462,0,0,0,0,0,0.5762,0.577,0.5748,0.5739,0.5674,0.5643,0.5635,0.5587,0.5567,0.5568,0.5529,0.5494,0.5439,0.5429,0.542,0.5431,0.5378,0.538,0.5383,0.5444,0.5454,0.5461,0,0,0,0,0,0,0.5832,0.5761,0.5736,0.5725,0.5691,0.5631,0.5631,0.5598,0.5569,0.5564,0.5507,0.5494,0.5484,0.5456,0.5446,0.5435,0.5404,0.5405,0.5453,0.5462,0.5469,0.5475,0.5392,0,0,0,0,0,0.5846,0.5826,0.5766,0.5762,0.5746,0.5692,0.5677,0.5643,0.5605,0.559,0.555,0.5515,0.549,0.5474,0.5447,0.5444,0.5431,0.5447,0.5454,0.546,0.5461,0.5458,0.5465,0.5393,0.5393,0.5393,0,0,0.5874,0.5834,0.5825,0.5775,0.5745,0.5726,0.568,0.5662,0.5648,0.5587,0.5569,0.5539,0.5495,0.5485,0.5479,0.5461,0.5479,0.5463,0.5469,0.5466,0.5462,0.5469,0.5475,0.5395,0.5394,0.5394,0,0,0.5917,0.5885,0.5878,0.5849,0.5804,0.5768,0.5767,0.5711,0.5689,0.567,0.5625,0.5607,0.5565,0.5536,0.5516,0.5551,0.5517,0.5544,0.558,0.5578,0.5584,0.5588,0.5601,0.5606,0.5546,0.5546,0.5546,0,0.5959,0.5929,0.5879,0.5864,0.5844,0.579,0.5783,0.5757,0.5706,0.5693,0.5675,0.5622,0.5588,0.5571,0.558,0.5566,0.5563,0.555,0.5587,0.5591,0.5595,0.5606,0.5611,0.5549,0.5549,0.5549,0.5548,0,0.5982,0.5963,0.5963,0.5915,0.5896,0.5885,0.5834,0.582,0.5789,0.5756,0.5738,0.5696,0.5661,0.5655,0.5624,0.5634,0.5625,0.5598,0.5565,0.5606,0.5616,0.562,0.5554,0.5553,0.5552,0.5551,0,0,0.6065,0.5991,0.5992,0.597,0.5917,0.5901,0.5889,0.5855,0.5844,0.5811,0.58,0.5766,0.5741,0.5719,0.5685,0.5683,0.5714,0.5656,0.5654,0.5668,0.5723,0.5744,0.575,0.5692,0.5692,0.5693,0.5727,0,0.6099,0.6074,0.603,0.6019,0.6001,0.5949,0.5939,0.5906,0.5875,0.5855,0.582,0.5798,0.5766,0.5752,0.5748,0.5711,0.5724,0.5708,0.5681,0.568,0.5693,0.5755,0.5776,0.581,0.573,0.5731,0.5732,0,0.6135,0.6106,0.6094,0.6044,0.6034,0.6025,0.5992,0.5973,0.5935,0.5913,0.5889,0.5852,0.5837,0.5808,0.5787,0.5777,0.5764,0.5744,0.5744,0.574,0.5708,0.5752,0.582,0.5825,0.5737,0.5737,0.5736,0,0.6197,0.6155,0.6142,0.6125,0.6066,0.6061,0.6037,0.5997,0.598,0.5951,0.5939,0.5909,0.5892,0.5869,0.5825,0.5808,0.581,0.5777,0.5791,0.5792,0.5793,0.5793,0.586,0.5785,0.5785,0.5785,0.5785,0,0.624,0.6234,0.6169,0.6161,0.6154,0.6104,0.6099,0.6069,0.6035,0.6021,0.5975,0.5963,0.5906,0.5888,0.5853,0.5842,0.5835,0.5816,0.5807,0.582,0.5823,0.581,0.5807,0.5786,0.5786,0.5785,0.5785,0,0.6307,0.6263,0.6246,0.6192,0.6179,0.6176,0.613,0.6121,0.6088,0.6071,0.6064,0.6012,0.5988,0.5943,0.5906,0.5883,0.5879,0.5863,0.5892,0.5886,0.5903,0.5902,0.5963,0.5969,0.5891,0.5892,0.5893,0,0.6337,0.6331,0.6278,0.6266,0.6243,0.6223,0.6206,0.6157,0.6141,0.6099,0.6095,0.6068,0.6043,0.6008,0.5967,0.5939,0.5922,0.5945,0.5917,0.5931,0.5922,0.5923,0.5923,0.5952,0.5953,0.5954,0.5954,0,0.6395,0.6374,0.6351,0.6321,0.6302,0.6276,0.6247,0.624,0.6185,0.6169,0.6145,0.6126,0.6089,0.6063,0.6029,0.6004,0.597,0.5964,0.5965,0.5979,0.5996,0.5987,0.5909,0.5962,0.5961,0.5961,0.596,0.596,0.6444,0.6437,0.6399,0.6376,0.635,0.6325,0.6314,0.628,0.6259,0.6225,0.6198,0.6176,0.6139,0.6091,0.6068,0.6051,0.6034,0.6037,0.6037,0.6039,0.6044,0.5999,0.6044,0.6044,0.6044,0.6043,0.6043,0,0.65,0.6473,0.6452,0.6414,0.6396,0.6367,0.6335,0.6321,0.6303,0.6272,0.6249,0.6222,0.6197,0.6155,0.6126,0.612,0.6104,0.6114,0.6114,0.6109,0.606,0.6062,0.6128,0.6128,0.6128,0.6128,0.6128,0.6128,0.6526,0.6514,0.6489,0.6465,0.6438,0.6416,0.64,0.6377,0.6353,0.6324,0.6303,0.6276,0.6241,0.621,0.6186,0.6175,0.6166,0.6182,0.6165,0.612,0.6112,0.6105,0.6106,0.618,0.618,0.6215,0.6216,0.6216]},{"header":{"parameterUnit":"m.s-1","parameterCategory":1,"la1":30.2991,"la2":30.254,"lo1":-89.0895,"lo2":-89.0444,"dy":0.0017,"dx":0.0017,"nx":28,"ny":28,"refTime":"2023-10-07T09:00:00:Z","depth":0,"parameterNumber":3,"parameterNumberName":"V-component_of_WINDS"},"data":[0,0,0,0,0,0,0,0,0,0,0,0,0,0,0,0,0,0,0,0,0,0,0,0,0,0,0,0,0,0,0,0,0,0,0,0,0,0,0,0,0,0,0,0,0,0,0,0,0,0,0,0,0,0,0,0,0,0,-1.5595,-1.5596,0,-1.5714,-1.5716,-1.5717,-1.5743,-1.5742,-1.5742,-1.5741,-1.5863,-1.5867,-1.5871,0,0,0,0,0,0,0,0,0,0,0,0,0,-1.5389,-1.5393,-1.5595,-1.5597,-1.5598,-1.5714,-1.5716,-1.5717,-1.5743,-1.5742,-1.5741,-1.574,-1.5861,-1.5866,-1.5871,0,0,0,0,0,0,0,0,0,0,0,0,0,-1.5491,-1.5394,-1.5595,-1.5625,-1.5629,-1.5714,-1.5716,-1.5718,-1.5744,-1.5742,-1.5741,-1.574,-1.586,-1.5866,-1.5872,-1.5935,0,0,-1.589,-1.5893,0,0,0,0,0,0,0,0,-1.5485,-1.5498,-1.5619,-1.5623,-1.5628,-1.5713,-1.5688,-1.579,-1.5744,-1.57,-1.5741,-1.5739,-1.5814,-1.5824,-1.5849,-1.594,-1.5945,-1.5891,-1.5894,-1.5897,-1.5899,0,0,0,0,0,0,0,-1.5478,-1.5493,-1.5642,-1.5621,-1.5626,-1.5632,-1.5645,-1.5707,-1.5763,-1.5704,-1.5706,-1.572,-1.5816,-1.5843,-1.5852,-1.5947,-1.589,-1.5896,-1.59,-1.5902,-1.6095,-1.6097,0,0,0,0,0,0,-1.5466,-1.5487,-1.5638,-1.5646,-1.5552,-1.5637,-1.5652,-1.5687,-1.5762,-1.5772,-1.5721,-1.5721,-1.5833,-1.5845,-1.5856,-1.5934,-1.5897,-1.5903,-1.5906,-1.6094,-1.6096,-1.6097,0,0,0,0,0,0,-1.5461,-1.5479,-1.5634,-1.5567,-1.5587,-1.5642,-1.5681,-1.569,-1.5717,-1.5775,-1.5785,-1.5738,-1.5833,-1.5848,-1.5915,-1.5938,-1.5905,-1.5911,-1.6092,-1.6094,-1.6097,-1.609,0,0,0,0,0,0,-1.5455,-1.5477,-1.5502,-1.5568,-1.5591,-1.569,-1.5683,-1.5693,-1.5727,-1.5728,-1.5794,-1.5803,-1.5833,-1.5905,-1.5921,-1.5946,-1.5916,-1.609,-1.6093,-1.6096,-1.6088,-1.6092,-1.6095,0,0,0,0,0,-1.5448,-1.5495,-1.5503,-1.5521,-1.5623,-1.5692,-1.5705,-1.5738,-1.5729,-1.5754,-1.5791,-1.5801,-1.5934,-1.5912,-1.5929,-1.5957,-1.6089,-1.6092,-1.6096,-1.6087,-1.6091,-1.6095,0,0,0,0,0,0,-1.5431,-1.5505,-1.5514,-1.5584,-1.5631,-1.5696,-1.5728,-1.5741,-1.5792,-1.579,-1.5829,-1.5844,-1.5908,-1.594,-1.5914,-1.6021,-1.6011,-1.6018,-1.5998,-1.6003,-1.6006,-1.5997,-1.5921,0,0,0,0,0,-1.5436,-1.5485,-1.5547,-1.5603,-1.5627,-1.5673,-1.5705,-1.5726,-1.5776,-1.5796,-1.5838,-1.5887,-1.5939,-1.5973,-1.6025,-1.6093,-1.6108,-1.6121,-1.6124,-1.6126,-1.6132,-1.617,-1.6176,-1.6108,-1.6108,-1.6108,0,0,-1.5445,-1.5492,-1.5521,-1.5601,-1.564,-1.569,-1.569,-1.5744,-1.5781,-1.5804,-1.587,-1.5903,-1.5959,-1.6027,-1.6059,-1.6055,-1.6154,-1.6131,-1.6132,-1.6136,-1.6174,-1.618,-1.6186,-1.6111,-1.611,-1.611,0,0,-1.5489,-1.5529,-1.558,-1.5619,-1.5678,-1.5709,-1.5721,-1.5784,-1.5806,-1.5873,-1.5891,-1.5936,-1.6026,-1.6065,-1.6097,-1.6155,-1.6166,-1.617,-1.6187,-1.6223,-1.6228,-1.6233,-1.6253,-1.626,-1.6176,-1.6176,-1.6176,0,-1.5494,-1.557,-1.5605,-1.5657,-1.5691,-1.5715,-1.5766,-1.5802,-1.5875,-1.5898,-1.5893,-1.6005,-1.6045,-1.6122,-1.6136,-1.6161,-1.6176,-1.6163,-1.6225,-1.623,-1.6235,-1.6254,-1.6262,-1.6176,-1.6176,-1.6176,-1.6176,0,-1.5573,-1.5626,-1.5659,-1.5729,-1.5767,-1.5819,-1.586,-1.5895,-1.5913,-1.5944,-1.6011,-1.6059,-1.612,-1.6141,-1.6159,-1.622,-1.6216,-1.6217,-1.6207,-1.6241,-1.626,-1.6267,-1.6176,-1.6176,-1.6176,-1.6176,0,0,-1.5609,-1.5696,-1.5708,-1.5739,-1.5806,-1.5847,-1.59,-1.596,-1.5988,-1.6037,-1.6082,-1.6157,-1.6159,-1.6195,-1.6217,-1.6249,-1.6291,-1.6247,-1.6249,-1.6253,-1.636,-1.6357,-1.6365,-1.6299,-1.63,-1.6301,-1.6355,0,-1.5659,-1.5754,-1.5786,-1.5864,-1.5912,-1.5935,-1.5981,-1.6026,-1.6057,-1.6102,-1.6136,-1.6188,-1.6187,-1.6209,-1.6242,-1.6278,-1.6312,-1.6275,-1.634,-1.6342,-1.6324,-1.6375,-1.6373,-1.6421,-1.6362,-1.6364,-1.6365,0,-1.5731,-1.5781,-1.5864,-1.5923,-1.5945,-1.5985,-1.6042,-1.6086,-1.6138,-1.6158,-1.6198,-1.6218,-1.6273,-1.626,-1.6336,-1.631,-1.6339,-1.6361,-1.6364,-1.637,-1.6354,-1.6382,-1.6437,-1.6444,-1.6377,-1.6376,-1.6375,0,-1.5747,-1.5836,-1.5896,-1.5922,-1.5994,-1.6022,-1.6053,-1.6104,-1.6137,-1.6187,-1.6209,-1.6265,-1.6295,-1.6338,-1.6372,-1.636,-1.6445,-1.6435,-1.6462,-1.6461,-1.6479,-1.6477,-1.6538,-1.6499,-1.6498,-1.6498,-1.6498,0,-1.58,-1.5849,-1.5904,-1.5941,-1.5997,-1.6033,-1.6088,-1.612,-1.6165,-1.6208,-1.6232,-1.6272,-1.6316,-1.6362,-1.6389,-1.6448,-1.6462,-1.6479,-1.6485,-1.6476,-1.6474,-1.6494,-1.6492,-1.65,-1.65,-1.6499,-1.6499,0,-1.5827,-1.5866,-1.5933,-1.5996,-1.6012,-1.6051,-1.6104,-1.614,-1.6172,-1.6226,-1.6241,-1.6291,-1.6346,-1.6385,-1.6456,-1.6475,-1.6537,-1.6544,-1.6519,-1.6522,-1.6547,-1.6544,-1.6623,-1.6634,-1.6588,-1.6588,-1.6589,0,-1.5858,-1.5896,-1.5962,-1.5993,-1.6024,-1.6073,-1.6107,-1.6145,-1.6179,-1.6241,-1.627,-1.6327,-1.6374,-1.6462,-1.6504,-1.6558,-1.6566,-1.659,-1.6574,-1.6563,-1.6565,-1.6562,-1.6565,-1.6592,-1.6592,-1.6592,-1.6593,0,-1.5907,-1.5924,-1.5973,-1.6028,-1.6068,-1.6113,-1.6159,-1.6183,-1.6228,-1.6266,-1.6322,-1.6359,-1.6431,-1.6487,-1.6546,-1.6578,-1.6592,-1.6597,-1.6606,-1.6597,-1.658,-1.6588,-1.6525,-1.6595,-1.6595,-1.6595,-1.6595,-1.6594,-1.5936,-1.5971,-1.6023,-1.6076,-1.6114,-1.6156,-1.6193,-1.6229,-1.6276,-1.6338,-1.6357,-1.6416,-1.6467,-1.6547,-1.6579,-1.6625,-1.6624,-1.6637,-1.664,-1.6643,-1.6642,-1.6574,-1.6636,-1.6636,-1.6636,-1.6636,-1.6636,0,-1.5986,-1.602,-1.6069,-1.6131,-1.6173,-1.6183,-1.6234,-1.6268,-1.6319,-1.6365,-1.6411,-1.6476,-1.653,-1.6576,-1.6632,-1.666,-1.6668,-1.6674,-1.6671,-1.6678,-1.6641,-1.6627,-1.6666,-1.6666,-1.6666,-1.6666,-1.6666,-1.6666,-1.6017,-1.6075,-1.6099,-1.6177,-1.6211,-1.6268,-1.6296,-1.6334,-1.6371,-1.6442,-1.6487,-1.6517,-1.6563,-1.6623,-1.6673,-1.6685,-1.6704,-1.6707,-1.6721,-1.6685,-1.6681,-1.6678,-1.6665,-1.6711,-1.6711,-1.6755,-1.6755,-1.6755]}]]